| time (UTC) | temp C | wind direction | speed KPH | gust KPH | rain 1hr cm | rain 24hr cm | rain mn cm | humidity % | barometer mb |
| 20260506190025 | 18 | 247 | 46.7 | 70.8 | 0.00 | 1.27 | 0.10 | 35 | 997.9 |
| 20260506184524 | 18 | 158 | 43.5 | 64.4 | 0.00 | 1.27 | 0.10 | 36 | 997.2 |
| 20260506183004 | 17 | 155 | 24.1 | 46.7 | 0.00 | 1.27 | 0.10 | 30 | 996.4 |
| 20260506181504 | 17 | 146 | 32.2 | 51.5 | 0.00 | 1.27 | 0.10 | 33 | 995.6 |
| 20260506180005 | 16 | 131 | 29.0 | 45.1 | 0.00 | 1.27 | 0.10 | 31 | 994.8 |
| 20260506174525 | 16 | 271 | 12.9 | 33.8 | 0.00 | 1.27 | 0.10 | 28 | 994.1 |
| 20260506173004 | 16 | 278 | 37.0 | 51.5 | 0.00 | 1.27 | 0.10 | 42 | 993.7 |
| 20260506171503 | 16 | 181 | 45.1 | 64.4 | 0.00 | 1.27 | 0.10 | 47 | 993.2 |
| 20260506170004 | 15 | 114 | 17.7 | 32.2 | 0.00 | 1.27 | 0.10 | 38 | 992.3 |
| 20260506164503 | 14 | 239 | 17.7 | 40.2 | 0.00 | 1.27 | 0.10 | 38 | 991.7 |
| 20260506163004 | 15 | 209 | 33.8 | 45.1 | 0.00 | 1.27 | 0.10 | 51 | 991.6 |
| 20260506161503 | 13 | 136 | 19.3 | 35.4 | 0.00 | 1.27 | 0.10 | 47 | 991.0 |
| 20260506160004 | 12 | 144 | 17.7 | 30.6 | 0.00 | 1.27 | 0.10 | 45 | 990.2 |
| 20260506154504 | 12 | 185 | 16.1 | 37.0 | 0.00 | 1.27 | 0.10 | 47 | 989.8 |
| 20260506153004 | 12 | 211 | 19.3 | 30.6 | 0.00 | 1.27 | 0.10 | 53 | 989.5 |
| 20260506151503 | 11 | 243 | 25.7 | 35.4 | 0.00 | 1.27 | 0.10 | 58 | 989.1 |
| 20260506150004 | 10 | 205 | 12.9 | 29.0 | 0.00 | 1.27 | 0.10 | 57 | 988.6 |
| 20260506144504 | 10 | 298 | 32.2 | 41.8 | 0.03 | 1.27 | 0.10 | 62 | 988.0 |
| 20260506143003 | 9 | 223 | 22.5 | 30.6 | 0.10 | 1.27 | 0.10 | 62 | 987.8 |
| 20260506141503 | 8 | 163 | 16.1 | 27.4 | 0.10 | 1.27 | 0.10 | 63 | 987.7 |
| 20260506140003 | 7 | 119 | 4.8 | 16.1 | 0.10 | 1.27 | 0.10 | 60 | 987.3 |
| 20260506134503 | 7 | 204 | 14.5 | 20.9 | 0.08 | 1.24 | 0.08 | 65 | 986.9 |
| 20260506043003 | 5 | 215 | 4.8 | 14.5 | 0.00 | 1.17 | 1.17 | 76 | 991.1 |
| 20260506041503 | 5 | 236 | 8.0 | 19.3 | 0.00 | 1.17 | 1.17 | 77 | 991.3 |
| 20260506040004 | 6 | 216 | 9.7 | 19.3 | 0.00 | 1.17 | 1.17 | 73 | 991.0 |
| 20260506034504 | 6 | 224 | 12.9 | 20.9 | 0.00 | 1.17 | 1.17 | 72 | 991.1 |
| 20260506033004 | 6 | 176 | 11.3 | 20.9 | 0.00 | 1.17 | 1.17 | 65 | 991.0 |
| 20260506031503 | 7 | 265 | 12.9 | 20.9 | 0.00 | 1.17 | 1.17 | 65 | 991.1 |
| 20260506030003 | 8 | 200 | 6.4 | 14.5 | 0.00 | 1.17 | 1.17 | 61 | 991.2 |
| 20260506024525 | 9 | 198 | 25.7 | 38.6 | 0.00 | 1.17 | 1.17 | 68 | 991.2 |
| 20260506023003 | 9 | 122 | 14.5 | 25.7 | 0.00 | 1.17 | 1.17 | 60 | 991.2 |
| 20260506021503 | 10 | 208 | 22.5 | 30.6 | 0.00 | 1.17 | 1.17 | 59 | 991.1 |
| 20260506020003 | 10 | 324 | 4.8 | 17.7 | 0.00 | 1.17 | 1.17 | 45 | 990.7 |
| 20260506014503 | 11 | 290 | 22.5 | 38.6 | 0.25 | 1.17 | 1.17 | 50 | 990.5 |
| 20260506013004 | 12 | 283 | 37.0 | 48.3 | 0.43 | 1.17 | 1.17 | 58 | 991.0 |
| 20260506011504 | 13 | 290 | 29.0 | 45.1 | 0.56 | 1.17 | 1.17 | 54 | 990.9 |
| 20260506010004 | 13 | 182 | 35.4 | 49.9 | 0.66 | 1.17 | 1.17 | 54 | 990.8 |
| 20260506004504 | 15 | 197 | 27.4 | 62.8 | 0.61 | 0.89 | 0.91 | 56 | 991.1 |
| 20260506003004 | 14 | 229 | 25.7 | 38.6 | 0.48 | 0.71 | 0.74 | 45 | 990.3 |
| 20260506001504 | 15 | 165 | 27.4 | 41.8 | 0.43 | 0.61 | 0.61 | 45 | 990.2 |
| 20260506000004 | 16 | 121 | 35.4 | 54.7 | 0.48 | 0.48 | 0.48 | 49 | 990.2 |
| 20260505234525 | 15 | 133 | 16.1 | 30.6 | 0.28 | 0.43 | 0.28 | 35 | 989.5 |
| 20260505233005 | 16 | 166 | 12.9 | 37.0 | 0.23 | 0.41 | 0.25 | 38 | 989.6 |
| 20260505231525 | 17 | 184 | 30.6 | 57.9 | 0.18 | 0.43 | 0.18 | 39 | 989.2 |
| 20260505230005 | 17 | 128 | 30.6 | 53.1 | 0.00 | 0.33 | 0.00 | 33 | 988.8 |
| 20260505224505 | 17 | 191 | 14.5 | 29.0 | 0.00 | 0.38 | 0.00 | 31 | 988.7 |
| 20260505223005 | 18 | 171 | 27.4 | 49.9 | 0.00 | 0.51 | 0.00 | 32 | 988.5 |
| 20260505221505 | 18 | 155 | 29.0 | 51.5 | 0.00 | 0.64 | 0.00 | 36 | 988.5 |
| 20260505220026 | 18 | 201 | 20.9 | 37.0 | 0.00 | 0.66 | 0.00 | 29 | 987.9 |
| 20260505214505 | 19 | 189 | 29.0 | 49.9 | 0.00 | 0.66 | 0.00 | 33 | 987.9 |
| 20260505213005 | 19 | 235 | 24.1 | 59.5 | 0.00 | 0.66 | 0.00 | 35 | 987.7 |
| 20260505211505 | 19 | 257 | 27.4 | 45.1 | 0.00 | 0.66 | 0.00 | 32 | 987.3 |
| 20260505210005 | 20 | 241 | 40.2 | 62.8 | 0.00 | 0.66 | 0.00 | 37 | 987.2 |
| 20260505204504 | 19 | 261 | 38.6 | 62.8 | 0.00 | 0.66 | 0.00 | 30 | 986.4 |
| 20260505203005 | 20 | 272 | 38.6 | 53.1 | 0.00 | 0.66 | 0.00 | 32 | 986.2 |
| 20260505201504 | 20 | 244 | 43.5 | 78.9 | 0.00 | 0.66 | 0.00 | 40 | 986.6 |
| 20260505200004 | 19 | 223 | 46.7 | 64.4 | 0.00 | 0.66 | 0.00 | 31 | 985.6 |
| 20260505194504 | 19 | 185 | 40.2 | 61.2 | 0.00 | 0.66 | 0.00 | 34 | 985.6 |
| 20260505193004 | 18 | 143 | 37.0 | 53.1 | 0.00 | 0.66 | 0.00 | 30 | 985.2 |
| 20260505191504 | 18 | 116 | 27.4 | 46.7 | 0.00 | 0.66 | 0.00 | 31 | 985.2 |